STARLINK-1227, 45230

Orbit data source: Space-Track

STARLINK-1227, 45230 is a payload satellite owned by SpaceX/Seattle (US) in LEO that was launched on Mon, 17 Feb 2020 UTC via an FALCON 9 launch vehicle from the Air Force Eastern Test Range (AFETR). Payload-class satellites include a variety of spacecraft equipped with specific instruments for various scientific and technological missions. These include communications satellites like Starlink; space stations such as the ISS; scientific satellites like the Hubble; Earth observation satellites from companies like Planet Labs, Umbra, and HawkEye 360; GPS; miniature CubeSats for education and research; and military/defense satellites.

Loading next visibility...
Identifier
45230, 2020-012BE
Orbit
LEO
Country
Flag of USUS
Related business
Manufacturer
SpaceX/Seattle
Mission
Partially operational Commercial Communications
Bus & Motor
STARLINK, Unknown motor
Mass
260 kg wet, ~248 kg dry
Launch date (UTC)
2020-02-17 (7 years ago)
Launch vehicle
FALCON 9
Launch site
Air Force Eastern Test Range (AFETR)
Object type
Payload
Rocket body
Debris
Shape & HBR
Box + 1 Pan, 10.1 m
Radar Cross Section
13.562 m², Large (>1 m²)

Expand to show TLE details & history
Last TLE update: 20 hours ago

TLE from 20 hours ago
0 STARLINK-1227
1 45230U 20012BE  26267.11709898  .00065511  00000-0  91680-3 0  9990
2 45230  53.1469 136.2222 0003292 160.7625 199.3512 15.56219913366204
Epoch: 2026-09-24T02:48Z
TLE epoch observation values (Epoch: 2026-09-24T02:48:37.351Z)
Latitude
-0.00002°
Longitude
91.10808°
Altitude
401.622 km
Speed
7.67 km/s
True Right ascension
09h 04m 53s
True Declination
0° 00' 00"
Sunlit
Object was in daylight at epoch
Visualization orbit readout
Latitude
Unknown
Longitude
Unknown
Altitude
Unknown
Speed
Unknown
Apparent Right ascension
Unknown
Apparent Declination
Unknown
Sunlit
N/A
Visualization observer readout
Local Sidereal Time
16:02:07
Azimuth
Unknown
Elevation
Unknown
Doppler factor
Unknown
Orbital elements
Apogee altitude
401.101 km
Perigee altitude
396.639 km
Semi-major axis
6,777.007 km
Eccentricity
0.00033
Inclination
53.1469°
RAAN
136.2222°
Arg. of periapsis
160.7625°
True anomaly
199.3387°
Mean anomaly
199.3512°
Eccentric anomaly
199.34495°
Mean motion
3.89033 °/min
Orbital period
92.54 mins
BSTAR
0.0009168
Loading maneuver chart data...
Computing Atmospheric mass density...

Documentation

Showing up to 5 results
|